Showing default

GENA-OT-1, 66774

Orbit data source: Space-Track

GENA-OT-1, 66774 is a German payload satellite in SSO that was launched on Fri, 28 Nov 2025 UTC via an FALCON 9 launch vehicle from the Air Force Western Test Range (AFWTR). Payload-class satellites include a variety of spacecraft equipped with specific instruments for various scientific and technological missions. These include communications satellites like Starlink; space stations such as the ISS; scientific satellites like the Hubble; Earth observation satellites from companies like Planet Labs, Umbra, and HawkEye 360; GPS; miniature CubeSats for education and research; and military/defense satellites.

Loading next visibility...
Identifier
66774, 2025-276DN
Orbit
SSO
Country
Flag of DEDE / GER
Related business
Manufacturer
OroraTech
Mission
Operational Commercial Technology
Bus & Motor
CUBESAT 12U, Unknown motor
Mass
~15 kg wet, ~15 kg dry
Launch date (UTC)
2025-11-28 (2 months ago)
Launch vehicle
FALCON 9
Launch site
Air Force Western Test Range (AFWTR)
Object type
Payload
Rocket body
Debris
Shape & HBR
Box + 2 Pan, 0.2 m
Radar Cross Section
0.092 m²

Expand to show TLE details & history
Last TLE update: 14 hours ago

TLE from 14 hours ago
0 GENA-OT-1
1 66774U 25276DN  26034.63008909  .00008135  00000-0  38808-3 0  9999
2 66774  97.4351 110.5931 0001115  18.3845 341.7430 15.19336733 10158
Epoch: 2026-02-03T15:07Z
TLE epoch observation values (Epoch: 2026-02-03T15:07:19.697Z)
Latitude
Longitude
109.95276°
Altitude
510.203 km
Speed
7.609 km/s
True Right ascension
07h 22m 22s
True Declination
0° 00' 00"
Sunlit
Object was in full shadow at epoch
Visualization orbit readout
Latitude
Unknown
Longitude
Unknown
Altitude
Unknown
Speed
Unknown
Apparent Right ascension
Unknown
Apparent Declination
Unknown
Sunlit
N/A
Visualization observer readout
Local Sidereal Time
07:05:44
Azimuth
Unknown
Elevation
Unknown
Doppler factor
Unknown
Orbital elements
Apogee altitude
505.579 km
Perigee altitude
504.044 km
Semi-major axis
6,882.949 km
Eccentricity
0.00011
Inclination
97.4351°
RAAN
110.5931°
Arg. of periapsis
18.3845°
True anomaly
341.739°
Mean anomaly
341.743°
Eccentric anomaly
341.741°
Mean motion
3.80086 °/min
Orbital period
94.72 mins
BSTAR
0.00038808
Loading maneuver chart data...
Computing Atmospheric mass density...
Loading historical data...
Loading historical data...
Loading historical data...
Loading historical data...
Loading historical data...
Loading historical data...
Loading historical data...

Documentation

Showing up to 5 results
|